Theta_e
302 303 303 303 304 304 304 304 305 306 306 305 306 307 307 309 312 315 317 318 317 318 319 318 318 319 318 318 318 317 315 315 310 313 316 316 317 317 316 315 316 315 316
300 301 302 302 303 303 303 304 304 303 305 305 305 304 305 305 307 309 310 313 314 315 316 317 317 317 317 318 317 316 316 316 313 311 314 315 316 317 316 316 316 315 315
299 299 300 300 301 301 302 302 303 303 303 303 304 303 303 304 305 305 306 307 308 310 313 314 315 316 316 316 317 316 316 316 315 313 312 316 316 317 316 316 315 315 316
297 298 298 298 298 299 300 301 301 302 302 302 303 303 304 303 303 303 304 305 306 307 308 310 311 313 314 314 315 315 316 315 315 313 313 313 314 315 316 314 313 314 313
295 296 296 296 296 297 297 296 298 299 300 300 300 301 302 302 302 301 302 303 304 305 307 307 308 311 313 314 311 312 312 313 313 312 311 312 312 312 312 314 312 313 313
294 294 295 295 295 295 295 295 296 296 296 297 298 298 299 300 305 304 302 302 302 303 304 306 307 309 309 311 315 315 313 310 309 309 311 310 311 312 314 313 313 310 307
293 294 294 294 294 294 294 294 294 294 295 295 296 297 298 299 303 302 302 301 302 302 304 304 304 305 307 306 308 308 308 314 314 311 309 309 310 312 313 312 312 311 311
293 292 292 291 291 292 293 293 293 294 294 295 295 296 297 298 301 301 301 301 302 303 303 304 304 304 305 303 302 301 302 304 308 310 312 313 313 315 314 313 312 312 312
290 289 290 290 290 291 291 292 292 292 293 294 295 295 296 297 299 300 298 296 297 298 299 300 300 300 304 303 301 300 301 303 307 310 311 312 313 312 311 309 306 307 306
288 288 289 290 289 289 290 290 291 292 292 293 293 294 295 294 296 297 296 295 294 295 296 298 301 301 300 301 298 296 296 299 302 302 303 305 307 308 311 310 309 305 305
288 288 288 288 288 288 288 290 290 290 290 290 290 292 291 291 292 294 294 292 291 291 292 294 296 299 299 299 300 299 298 300 301 300 301 303 304 305 307 308 310 309 307
288 287 287 287 287 287 288 288 289 288 288 287 288 288 289 289 291 292 293 293 292 289 289 292 294 297 297 297 296 298 298 299 299 300 300 300 301 302 304 306 308 309 310
288 287 287 287 287 287 286 286 287 287 287 286 285 285 286 288 289 291 291 291 291 290 290 292 293 294 294 293 293 294 293 291 291 291 290 292 295 300 303 303 305 306 308
287 286 287 286 286 287 286 286 285 285 285 285 284 284 285 286 287 288 287 287 289 289 290 289 290 290 290 289 289 290 290 290 289 288 288 290 292 292 293 297 299 301 301
286 286 286 286 286 286 287 286 285 286 286 285 285 285 284 283 285 288 287 286 287 288 288 287 286 285 285 285 285 286 287 287 286 287 287 288 288 288 289 291 291 294 296
284 285 285 285 285 285 284 286 286 285 285 286 287 286 285 287 287 287 287 287 287 288 285 283 283 283 282 283 283 283 285 285 286 286 286 286 286 286 287 288 289 288 288
283 284 284 284 284 284 283 283 282 285 285 284 285 286 287 286 286 286 286 286 286 286 282 282 282 282 282 283 283 283 283 284 286 285 285 285 285 285 285 286 286 287 286
283 283 283 283 283 283 282 282 282 282 281 282 284 284 286 286 285 285 285 284 282 283 282 281 281 282 282 282 283 282 283 284 284 284 284 284 285 285 284 284 285 284 284
282 283 283 283 283 282 282 282 282 281 281 281 282 283 284 285 285 285 285 281 280 280 281 281 281 281 282 282 282 283 282 282 283 283 283 283 284 284 283 284 284 285 285
282 282 282 282 282 282 282 281 281 281 280 280 280 281 282 282 281 281 281 281 281 280 281 280 281 281 282 282 282 282 281 281 281 282 282 282 283 284 283 283 283 282 283
282 282 281 281 281 281 281 281 280 280 280 280 280 281 282 280 280 280 280 281 281 281 281 280 281 281 282 281 281 281 280 280 281 281 281 281 282 282 282 283 283 283 283
281 281 281 281 281 280 281 281 280 280 280 280 280 281 282 280 280 280 280 281 281 281 281 281 281 281 281 281 281 280 280 279 280 280 280 281 282 282 282 282 282 282 282
281 280 280 281 281 281 281 281 280 280 280 280 280 279 280 280 280 280 280 281 281 281 282 281 281 280 281 281 281 281 280 280 280 281 280 280 281 281 281 281 281 280 281
281 280 280 280 281 280 280 280 280 280 279 279 279 279 279 279 279 279 280 281 281 281 281 281 281 280 280 280 281 281 281 282 282 281 281 281 281 281 281 280 280 280 280
281 280 280 280 279 279 279 279 279 279 279 278 278 278 279 279 279 279 279 280 280 280 280 280 280 280 280 280 280 281 282 282 282 283 282 282 281 281 281 280 279 279 280
281 280 280 279 279 279 278 278 278 278 278 278 278 278 278 278 278 278 278 278 279 279 279 279 280 280 280 280 280 281 282 282 282 283 283 282 281 280 280 279 279 279 279
Wind_Speed
12 11 11 11 11 11 10 10 10 10 10 10 10 9 9 9 8 7 8 9 10 9 9 9 10 10 8 7 7 7 8 8 11 9 8 8 6 6 6 6 6 7 7
12 12 11 11 11 11 11 11 11 11 10 10 11 10 10 10 10 9 9 9 9 9 10 10 11 8 10 10 8 10 9 10 10 14 10 8 10 8 8 8 7 8 9
12 12 11 11 12 12 12 11 11 11 11 11 11 10 11 11 10 11 11 11 10 10 9 9 10 10 10 8 9 9 9 8 9 10 11 8 8 7 8 8 9 10 9
12 11 10 11 12 12 12 12 12 12 11 11 11 11 9 11 9 11 12 12 11 10 9 9 9 9 10 10 9 10 9 9 9 9 9 9 8 8 7 8 9 7 9
12 11 10 11 11 11 11 12 13 12 12 12 12 12 11 10 7 11 12 13 12 11 9 9 8 8 9 10 8 9 11 9 8 8 9 9 8 7 8 7 9 8 9
12 12 11 11 11 11 11 12 12 12 12 13 12 12 11 9 11 14 13 12 12 12 10 9 9 10 7 9 12 14 11 9 11 10 9 9 11 10 6 6 7 7 9
11 11 12 12 12 11 11 11 11 11 12 11 11 11 11 11 14 16 17 11 11 10 10 9 9 8 10 10 13 16 15 15 19 12 12 12 13 12 10 10 8 8 10
11 12 13 13 13 13 13 11 11 10 11 10 10 10 10 9 16 16 20 12 11 10 10 10 8 8 8 10 10 12 12 12 12 8 10 11 10 9 10 12 13 14 11
12 12 13 13 13 12 12 12 11 10 9 9 9 9 9 8 18 20 16 12 12 13 11 11 11 12 15 17 11 12 13 11 12 15 11 14 16 17 15 9 10 11 12
13 13 13 13 13 13 13 12 12 11 10 9 9 9 11 11 17 21 18 9 11 9 11 12 17 12 18 20 12 13 14 13 12 14 14 15 16 14 17 14 10 11 11
11 10 11 10 10 10 9 8 7 7 7 7 8 8 11 12 13 20 20 10 9 9 9 9 9 19 21 24 22 12 13 15 15 12 12 10 9 10 8 8 9 11 11
10 10 9 9 8 8 8 8 8 8 8 8 9 8 8 9 16 17 20 18 17 10 9 9 10 20 16 17 15 22 22 17 10 10 9 9 9 10 9 10 11 10 9
8 9 7 8 7 6 7 7 6 7 6 6 7 6 7 7 8 19 18 19 18 10 9 13 19 19 18 14 21 21 17 10 9 9 9 10 11 14 14 12 13 14 14
7 8 6 5 7 5 4 5 5 6 6 7 6 6 6 7 8 8 9 9 14 11 12 10 15 17 18 16 14 13 9 10 9 9 9 9 9 11 11 12 12 11 11
8 6 5 4 4 4 3 4 5 6 7 7 7 7 7 8 9 15 13 8 9 11 9 7 8 9 10 10 10 11 9 10 11 11 10 10 10 10 9 11 10 13 12
7 5 4 5 4 3 4 1 7 5 5 8 11 9 8 12 15 17 16 13 15 15 7 7 8 8 9 10 10 10 10 13 10 10 10 10 10 10 11 10 10 10 11
6 5 5 4 4 4 4 3 4 1 5 4 6 10 12 12 14 15 16 13 13 12 7 7 7 7 7 8 8 9 10 9 11 9 10 10 10 10 14 11 11 11 11
6 5 4 3 3 4 4 4 4 4 4 4 4 6 11 13 13 13 15 11 8 8 7 7 8 8 8 8 9 9 9 9 9 10 10 11 11 11 11 11 11 12 13
4 4 4 3 3 4 4 4 4 5 5 5 6 6 10 15 11 10 11 7 7 7 7 7 7 8 8 8 8 8 10 10 11 10 10 11 11 11 11 11 12 20 20
4 4 4 4 3 4 4 4 4 5 5 5 5 6 6 9 7 7 7 7 7 6 7 7 7 8 8 8 9 9 9 10 10 10 10 11 11 11 12 13 12 13 12
4 4 4 4 4 4 4 5 4 5 5 5 6 6 10 7 7 7 7 6 6 6 7 7 7 7 7 8 8 9 10 10 10 11 11 12 12 12 12 12 12 12 13
4 5 4 5 4 5 5 5 5 6 6 6 6 7 10 6 6 7 7 7 7 6 6 7 7 7 8 8 9 10 10 10 10 11 12 12 13 13 12 13 13 13 13
5 6 6 6 6 7 6 7 6 6 7 7 7 7 7 6 6 7 7 7 6 6 6 7 7 7 7 8 9 9 10 10 10 12 14 13 14 13 13 13 13 14 14
7 7 7 7 6 7 7 7 7 9 8 8 8 8 7 7 7 8 8 7 7 8 7 7 7 11 10 10 9 9 10 10 10 13 18 15 14 16 14 13 13 17 15
8 7 8 7 7 7 8 8 8 8 8 8 8 8 8 8 8 8 8 8 8 8 9 9 8 12 13 16 16 17 19 23 20 24 14 17 17 20 15 12 15 15 18
8 8 8 7 7 8 8 8 8 8 8 8 8 8 8 8 8 8 8 9 9 8 11 9 11 16 18 15 16 21 24 26 24 29 19 15 14 14 13 14 19 15 17
Wind_Direction
15 14 19 15 11 11 14 9 6 2 2 1 357 353 354 351 342 317 293 281 277 275 267 261 259 263 257 249 240 239 245 245 257 264 264 272 263 217 226 205 226 230 230
4 3 9 9 6 5 4 0 359 357 354 357 354 354 354 351 345 351 339 324 303 289 279 272 267 261 260 259 255 249 241 246 252 264 261 264 258 260 247 236 229 227 230
354 353 357 358 358 354 352 351 351 349 347 349 349 350 352 346 341 358 342 335 326 317 307 297 289 284 273 261 255 253 259 257 254 262 269 263 267 267 264 245 237 248 255
345 346 347 349 345 343 341 341 339 338 337 338 339 339 343 340 340 360 344 335 325 319 317 309 299 295 292 290 279 272 263 258 260 262 265 268 263 262 261 263 257 245 253
339 341 346 343 339 338 339 336 332 333 330 324 328 328 329 328 360 2 343 328 322 314 313 309 312 328 314 289 293 296 305 301 278 265 266 268 267 261 255 254 260 261 265
337 334 339 336 337 336 332 330 331 330 324 328 327 325 327 322 6 356 343 321 308 310 306 314 314 311 332 324 267 256 255 274 279 286 290 269 271 274 266 258 260 257 270
332 334 335 334 330 329 330 331 330 326 327 327 324 329 329 326 354 345 336 318 300 291 304 310 317 321 329 0 348 335 315 271 242 255 264 268 279 289 300 289 270 261 262
335 344 339 332 326 325 326 326 323 329 324 319 322 329 325 323 351 360 349 329 320 316 321 317 308 314 334 8 342 326 313 309 307 294 259 262 268 277 285 287 285 281 277
347 339 337 332 330 329 329 331 329 321 321 320 326 322 329 360 9 17 2 344 334 330 324 319 327 331 341 353 338 321 315 310 307 303 305 296 279 272 265 278 274 275 274
347 336 337 340 335 333 344 337 335 331 341 339 341 349 354 16 8 6 3 345 340 331 318 325 335 358 345 336 327 319 307 305 317 319 309 299 289 280 262 244 250 260 266
332 335 345 338 332 337 342 338 349 350 360 5 7 19 24 18 12 5 1 355 345 330 326 326 324 328 335 330 317 303 303 313 307 297 284 279 278 277 275 267 245 239 254
337 352 342 359 351 353 359 357 12 17 18 24 23 26 22 17 10 5 5 6 357 347 343 330 326 332 348 356 2 354 350 355 340 325 321 327 329 325 320 319 310 298 276
335 334 351 13 350 22 11 13 19 21 21 23 26 24 15 9 8 6 7 5 3 1 349 3 7 9 10 6 4 4 3 2 355 359 350 339 337 331 320 315 313 312 306
329 323 343 24 337 17 32 18 34 24 14 24 24 16 15 13 12 2 4 2 4 2 6 10 14 15 14 9 5 5 1 5 2 353 345 340 335 343 338 342 327 317 305
321 317 352 342 340 359 27 39 19 46 23 10 16 7 14 12 9 3 360 1 359 358 13 16 10 10 6 5 3 2 360 360 357 353 349 346 341 340 338 339 330 331 315
315 323 2 324 348 5 357 41 118 92 45 24 17 28 7 12 5 4 2 3 9 8 18 16 15 9 5 0 358 354 355 354 352 345 345 343 342 338 334 334 329 332 326
308 330 331 317 342 349 355 357 348 41 168 97 19 2 13 2 1 2 1 0 13 11 16 9 6 2 358 356 354 348 346 344 342 344 339 339 338 337 336 331 330 327 323
293 294 297 326 334 342 346 344 340 341 342 351 6 357 1 356 353 358 359 1 5 12 9 360 357 353 350 350 351 347 341 337 339 339 339 337 334 332 332 331 330 328 324
288 294 323 318 324 324 324 325 333 332 334 336 338 350 358 345 339 355 359 4 357 358 355 352 349 344 344 343 342 340 335 333 338 336 336 334 332 329 326 325 324 327 325
266 258 283 294 301 303 307 307 317 321 320 325 327 337 343 337 342 347 351 350 348 344 343 339 341 334 337 337 336 335 331 337 332 333 330 329 327 322 325 320 324 324 318
258 266 256 277 271 285 289 290 299 302 303 306 307 316 329 326 318 329 331 332 330 329 328 328 327 324 328 328 326 327 330 328 325 326 327 325 321 321 321 318 316 318 316
256 253 255 261 267 261 264 285 275 276 280 288 297 303 306 293 306 310 312 315 313 316 314 315 316 320 321 323 322 322 321 322 321 324 323 317 316 316 316 317 314 317 316
246 250 249 250 250 262 262 255 270 275 282 291 295 298 299 298 299 299 299 301 304 302 304 304 310 307 311 312 314 311 313 315 319 321 314 313 313 311 315 312 314 316 315
241 245 249 255 259 261 270 271 272 275 272 280 285 290 292 291 295 296 298 299 299 299 300 297 300 304 304 307 306 305 303 307 313 309 308 306 304 312 308 311 315 313 310
241 245 250 252 255 258 265 265 269 276 279 281 285 287 290 291 293 295 297 295 295 296 296 302 306 298 299 301 303 305 303 310 312 307 305 304 305 306 304 307 312 309 306
233 243 252 255 256 258 261 266 272 276 280 282 284 285 288 290 292 295 295 294 294 295 300 298 290 301 303 301 298 299 306 308 307 306 306 304 304 304 306 308 309 307 306